{"data":{"norad_id":56454,"intl_designator":"2023-064G","name":"STARLINK-5959","alt_names":[],"object_type":"PAYLOAD","status":"ACTIVE","operator":null,"country":"US","launch_date":"2023-05-10","launch_site_code":"AFWTR","launch_vehicle":null,"mission":null,"orbit_class":"UNKNOWN","rcs_meters":null,"size_class":null,"mass_kg":null,"dimensions":null,"purposes":["comms"],"wikipedia_slug":null,"has_3d_model":false,"image_url":null,"decayed_at":null,"tle_current":{"epoch":"2026-05-25T04:18:30.534912Z","epoch_age_seconds":59866,"freshness":"FRESH","line1":"1 56454U 23064G   26145.17952008  .00000621  00000+0  59801-4 0  9994","line2":"2 56454  69.9991 311.5900 0003086 266.8247  93.2559 14.98329408166701","mean_motion":14.98329408,"eccentricity":0.0003086,"inclination_deg":69.9991,"raan_deg":311.59,"arg_perigee_deg":266.8247,"mean_anomaly_deg":93.2559,"bstar":5.9801e-5,"rev_number":16670,"period_min":96.107037098213,"perigee_km":569.91289156508,"apogee_km":574.20255174729,"semimajor_km":6950.1947216562,"source":"CELESTRAK","updated_at":"2026-05-25T13:38:18.067082Z"}}}